Time,TemperatureF,DewpointF,PressureIn,WindDirection,WindDirectionDegrees,WindSpeedMPH,WindSpeedGustMPH,Humidity,HourlyPrecipIn,Conditions,Clouds,dailyrainin,SoftwareType,DateUTC
2013-03-05 00:00:00,28.9,18.6,30.07,West,267,0.0,0.0,65,0.00,,SKC,0.00,VWS V14.01,2013-03-05 05:00:00,
2013-03-05 00:05:00,28.9,17.5,30.07,West,267,0.0,0.0,62,0.00,,SKC,0.00,VWS V14.01,2013-03-05 05:05:00,
2013-03-05 00:10:00,29.0,17.6,30.07,West,267,0.0,0.0,62,0.00,,SKC,0.00,VWS V14.01,2013-03-05 05:10:00,
2013-03-05 00:15:00,29.0,17.6,30.06,West,267,0.0,0.0,62,0.00,,SKC,0.00,VWS V14.01,2013-03-05 05:15:00,
2013-03-05 00:20:00,29.0,17.6,30.06,West,267,0.0,0.0,62,0.00,,SKC,0.00,VWS V14.01,2013-03-05 05:20:00,
2013-03-05 00:25:00,29.0,17.2,30.06,West,267,0.0,0.0,61,0.00,,SKC,0.00,VWS V14.01,2013-03-05 05:25:00,
2013-03-05 00:30:00,29.0,17.2,30.06,West,267,0.0,0.0,61,0.00,,SKC,0.00,VWS V14.01,2013-03-05 05:30:00,
2013-03-05 00:35:00,28.9,17.5,30.06,West,267,0.0,0.0,62,0.00,,SKC,0.00,VWS V14.01,2013-03-05 05:35:00,
2013-03-05 00:40:00,28.9,17.5,30.06,West,267,0.0,0.0,62,0.00,,SKC,0.00,VWS V14.01,2013-03-05 05:40:00,
2013-03-05 00:45:00,29.0,17.6,30.05,West,267,0.0,0.0,62,0.00,,SKC,0.00,VWS V14.01,2013-03-05 05:45:00,
2013-03-05 00:50:00,29.0,17.6,30.05,West,267,0.0,0.0,62,0.00,,SKC,0.00,VWS V14.01,2013-03-05 05:50:00,
2013-03-05 00:55:00,29.0,18.0,30.05,West,267,0.0,0.0,63,0.00,,SKC,0.00,VWS V14.01,2013-03-05 05:55:00,
2013-03-05 01:00:00,29.0,17.6,30.05,West,267,0.0,0.0,62,0.00,,SKC,0.00,VWS V14.01,2013-03-05 06:00:00,
2013-03-05 01:05:00,29.1,17.7,30.05,West,267,0.0,0.0,62,0.00,,SKC,0.00,VWS V14.01,2013-03-05 06:05:00,
2013-03-05 01:10:00,29.2,17.8,30.05,West,269,0.0,0.0,62,0.00,,SKC,0.00,VWS V14.01,2013-03-05 06:10:00,
2013-03-05 01:15:00,29.4,18.0,30.05,West,275,0.0,0.0,62,0.00,,SKC,0.00,VWS V14.01,2013-03-05 06:15:00,
2013-03-05 01:20:00,29.4,17.6,30.05,West,264,0.0,0.0,61,0.00,,SKC,0.00,VWS V14.01,2013-03-05 06:20:00,
2013-03-05 01:25:00,29.6,18.2,30.05,SSW,211,0.0,0.0,62,0.00,,SKC,0.00,VWS V14.01,2013-03-05 06:25:00,
2013-03-05 01:30:00,29.8,18.0,30.05,West,260,0.0,0.0,61,0.00,,SKC,0.00,VWS V14.01,2013-03-05 06:30:00,
2013-03-05 01:35:00,30.1,18.3,30.05,West,268,0.0,0.0,61,0.00,,SKC,0.00,VWS V14.01,2013-03-05 06:35:00,
2013-03-05 01:40:00,30.1,18.3,30.06,West,269,0.0,0.0,61,0.00,,SKC,0.00,VWS V14.01,2013-03-05 06:40:00,
2013-03-05 01:45:00,30.1,18.7,30.06,West,269,0.0,0.0,62,0.00,,SKC,0.00,VWS V14.01,2013-03-05 06:45:00,
2013-03-05 01:50:00,30.1,17.9,30.06,West,270,0.0,0.0,60,0.00,,SKC,0.00,VWS V14.01,2013-03-05 06:50:00,
2013-03-05 01:55:00,30.2,18.4,30.06,West,270,0.0,0.0,61,0.00,,SKC,0.00,VWS V14.01,2013-03-05 06:55:00,
2013-03-05 02:00:00,30.1,17.9,30.07,West,270,0.0,0.0,60,0.00,,SKC,0.00,VWS V14.01,2013-03-05 07:00:00,
2013-03-05 02:05:00,29.9,18.5,30.07,West,270,0.0,0.0,62,0.00,,SKC,0.00,VWS V14.01,2013-03-05 07:05:00,
2013-03-05 02:10:00,29.7,17.9,30.07,West,270,0.0,0.0,61,0.00,,SKC,0.00,VWS V14.01,2013-03-05 07:10:00,
2013-03-05 02:15:00,29.8,17.6,30.07,West,270,0.0,0.0,60,0.00,,SKC,0.00,VWS V14.01,2013-03-05 07:15:00,
2013-03-05 02:20:00,29.7,17.5,30.07,West,270,0.0,0.0,60,0.00,,SKC,0.00,VWS V14.01,2013-03-05 07:20:00,
2013-03-05 02:25:00,29.7,17.9,30.07,WSW,242,0.0,4.0,61,0.00,,SKC,0.00,VWS V14.01,2013-03-05 07:25:00,
2013-03-05 02:30:00,29.8,18.4,30.06,WSW,247,0.0,0.0,62,0.00,,SKC,0.00,VWS V14.01,2013-03-05 07:30:00,
2013-03-05 02:35:00,29.9,18.1,30.06,WSW,240,0.0,0.0,61,0.00,,SKC,0.00,VWS V14.01,2013-03-05 07:35:00,
2013-03-05 02:40:00,29.9,18.9,30.06,WSW,240,0.0,0.0,63,0.00,,SKC,0.00,VWS V14.01,2013-03-05 07:40:00,
2013-03-05 02:45:00,30.1,18.3,30.06,ENE,75,0.0,0.0,61,0.00,,SKC,0.00,VWS V14.01,2013-03-05 07:45:00,
2013-03-05 02:50:00,30.1,17.9,30.06,ENE,75,0.0,0.0,60,0.00,,SKC,0.00,VWS V14.01,2013-03-05 07:50:00,
2013-03-05 02:55:00,30.1,18.3,30.06,ENE,75,0.0,0.0,61,0.00,,SKC,0.00,VWS V14.01,2013-03-05 07:55:00,
2013-03-05 03:00:00,30.1,19.0,30.05,ENE,75,0.0,0.0,63,0.00,,SKC,0.00,VWS V14.01,2013-03-05 08:00:00,
2013-03-05 03:05:00,30.1,18.3,30.05,ENE,75,0.0,0.0,61,0.00,,SKC,0.00,VWS V14.01,2013-03-05 08:05:00,
2013-03-05 03:10:00,30.0,18.6,30.05,ENE,75,0.0,0.0,62,0.00,,SKC,0.00,VWS V14.01,2013-03-05 08:10:00,
2013-03-05 03:15:00,30.1,18.7,30.05,ENE,75,0.0,0.0,62,0.00,,SKC,0.00,VWS V14.01,2013-03-05 08:15:00,
2013-03-05 03:20:00,30.1,19.0,30.05,ENE,75,0.0,0.0,63,0.00,,SKC,0.00,VWS V14.01,2013-03-05 08:20:00,
2013-03-05 03:25:00,30.2,19.1,30.05,ENE,75,0.0,0.0,63,0.00,,SKC,0.00,VWS V14.01,2013-03-05 08:25:00,
2013-03-05 03:30:00,30.3,19.2,30.05,ENE,75,0.0,0.0,63,0.00,,SKC,0.00,VWS V14.01,2013-03-05 08:30:00,
2013-03-05 03:35:00,30.3,18.9,30.05,ENE,75,0.0,0.0,62,0.00,,SKC,0.00,VWS V14.01,2013-03-05 08:35:00,
2013-03-05 03:40:00,30.2,18.4,30.05,ENE,75,0.0,0.0,61,0.00,,SKC,0.00,VWS V14.01,2013-03-05 08:40:00,
2013-03-05 03:45:00,30.2,18.4,30.05,ENE,75,0.0,0.0,61,0.00,,SKC,0.00,VWS V14.01,2013-03-05 08:45:00,
2013-03-05 03:50:00,30.3,18.5,30.05,ENE,75,0.0,0.0,61,0.00,,SKC,0.00,VWS V14.01,2013-03-05 08:50:00,
2013-03-05 03:55:00,30.3,18.1,30.05,ENE,75,0.0,0.0,60,0.00,,SKC,0.00,VWS V14.01,2013-03-05 08:55:00,
2013-03-05 04:00:00,30.3,18.9,30.04,ENE,75,0.0,0.0,62,0.00,,SKC,0.00,VWS V14.01,2013-03-05 09:00:00,
2013-03-05 04:05:00,30.5,18.7,30.04,ENE,75,0.0,0.0,61,0.00,,SKC,0.00,VWS V14.01,2013-03-05 09:05:00,
2013-03-05 04:10:00,30.8,18.2,30.04,South,176,0.0,0.0,59,0.00,,SKC,0.00,VWS V14.01,2013-03-05 09:10:00,
2013-03-05 04:15:00,31.0,19.1,30.04,South,176,0.0,0.0,61,0.00,,SKC,0.00,VWS V14.01,2013-03-05 09:15:00,
2013-03-05 04:20:00,31.0,18.8,30.04,South,176,0.0,0.0,60,0.00,,SKC,0.00,VWS V14.01,2013-03-05 09:20:00,
2013-03-05 04:25:00,31.0,19.1,30.05,SSW,194,0.0,0.0,61,0.00,,SKC,0.00,VWS V14.01,2013-03-05 09:25:00,
2013-03-05 04:30:00,31.0,19.5,30.05,SSW,194,0.0,0.0,62,0.00,,SKC,0.00,VWS V14.01,2013-03-05 09:30:00,
2013-03-05 04:35:00,31.0,19.5,30.05,SSW,194,0.0,0.0,62,0.00,,SKC,0.00,VWS V14.01,2013-03-05 09:35:00,
2013-03-05 04:40:00,31.0,19.9,30.05,SSW,194,0.0,0.0,63,0.00,,SKC,0.00,VWS V14.01,2013-03-05 09:40:00,
2013-03-05 04:45:00,31.0,19.1,30.04,SSW,194,0.0,0.0,61,0.00,,SKC,0.00,VWS V14.01,2013-03-05 09:45:00,
2013-03-05 04:50:00,31.1,18.9,30.05,SSW,194,0.0,0.0,60,0.00,,SKC,0.00,VWS V14.01,2013-03-05 09:50:00,
2013-03-05 04:55:00,31.1,18.9,30.05,SSW,194,0.0,0.0,60,0.00,,SKC,0.00,VWS V14.01,2013-03-05 09:55:00,
2013-03-05 05:00:00,31.2,19.3,30.05,SSW,194,0.0,0.0,61,0.00,,SKC,0.00,VWS V14.01,2013-03-05 10:00:00,
2013-03-05 05:05:00,31.2,19.0,30.05,SSW,194,0.0,0.0,60,0.00,,SKC,0.00,VWS V14.01,2013-03-05 10:05:00,
2013-03-05 05:10:00,31.3,18.6,30.05,SSW,194,0.0,0.0,59,0.00,,SKC,0.00,VWS V14.01,2013-03-05 10:10:00,
2013-03-05 05:15:00,31.3,19.4,30.05,SSW,194,0.0,0.0,61,0.00,,SKC,0.00,VWS V14.01,2013-03-05 10:15:00,
2013-03-05 05:20:00,31.3,19.4,30.05,SSW,194,0.0,0.0,61,0.00,,SKC,0.00,VWS V14.01,2013-03-05 10:20:00,
2013-03-05 05:25:00,31.3,19.4,30.05,SSW,194,0.0,0.0,61,0.00,,SKC,0.00,VWS V14.01,2013-03-05 10:25:00,
2013-03-05 05:30:00,31.2,20.1,30.05,SSW,194,0.0,0.0,63,0.00,,SKC,0.00,VWS V14.01,2013-03-05 10:30:00,
2013-03-05 05:35:00,31.2,19.3,30.05,SSW,194,0.0,0.0,61,0.00,,SKC,0.00,VWS V14.01,2013-03-05 10:35:00,
2013-03-05 05:40:00,31.2,18.5,30.05,SSW,194,0.0,0.0,59,0.00,,SKC,0.00,VWS V14.01,2013-03-05 10:40:00,
2013-03-05 05:45:00,31.3,19.0,30.05,SSW,194,0.0,0.0,60,0.00,,SKC,0.00,VWS V14.01,2013-03-05 10:45:00,
2013-03-05 05:50:00,31.3,18.6,30.05,SSW,194,0.0,0.0,59,0.00,,SKC,0.00,VWS V14.01,2013-03-05 10:50:00,
2013-03-05 05:55:00,31.3,18.2,30.05,SSW,194,0.0,0.0,58,0.00,,SKC,0.00,VWS V14.01,2013-03-05 10:55:00,
2013-03-05 06:00:00,31.3,18.6,30.05,SSW,194,0.0,0.0,59,0.00,,SKC,0.00,VWS V14.01,2013-03-05 11:00:00,
2013-03-05 06:05:00,31.3,18.6,30.05,SSW,194,0.0,0.0,59,0.00,,SKC,0.00,VWS V14.01,2013-03-05 11:05:00,
2013-03-05 06:10:00,31.3,19.0,30.06,SSW,194,0.0,0.0,60,0.00,,SKC,0.00,VWS V14.01,2013-03-05 11:10:00,
2013-03-05 06:15:00,31.3,19.4,30.06,SSW,194,0.0,0.0,61,0.00,,SKC,0.00,VWS V14.01,2013-03-05 11:15:00,
2013-03-05 06:20:00,31.3,19.0,30.06,SSW,194,0.0,0.0,60,0.00,,SKC,0.00,VWS V14.01,2013-03-05 11:20:00,
2013-03-05 06:25:00,31.4,18.7,30.06,SSW,194,0.0,0.0,59,0.00,,SKC,0.00,VWS V14.01,2013-03-05 11:25:00,
2013-03-05 06:30:00,31.4,18.7,30.06,SSW,194,0.0,0.0,59,0.00,,SKC,0.00,VWS V14.01,2013-03-05 11:30:00,
2013-03-05 06:35:00,31.4,18.7,30.06,SSW,194,0.0,0.0,59,0.00,,SKC,0.00,VWS V14.01,2013-03-05 11:35:00,
2013-03-05 06:40:00,31.5,18.8,30.05,SSW,194,0.0,0.0,59,0.00,,SKC,0.00,VWS V14.01,2013-03-05 11:40:00,
2013-03-05 06:45:00,31.5,18.8,30.05,SSW,194,0.0,0.0,59,0.00,,SKC,0.00,VWS V14.01,2013-03-05 11:45:00,
2013-03-05 06:50:00,31.5,18.8,30.05,SSW,194,0.0,0.0,59,0.00,,SKC,0.00,VWS V14.01,2013-03-05 11:50:00,
2013-03-05 06:55:00,31.6,18.9,30.05,SSW,194,0.0,0.0,59,0.00,,SKC,0.00,VWS V14.01,2013-03-05 11:55:00,
2013-03-05 07:00:00,31.5,19.2,30.05,SSW,194,0.0,0.0,60,0.00,,SKC,0.00,VWS V14.01,2013-03-05 12:00:00,
2013-03-05 07:05:00,31.5,19.2,30.05,SSW,194,0.0,0.0,60,0.00,,SKC,0.00,VWS V14.01,2013-03-05 12:05:00,
2013-03-05 07:10:00,31.5,19.6,30.06,SSW,194,0.0,0.0,61,0.00,,SKC,0.00,VWS V14.01,2013-03-05 12:10:00,
2013-03-05 07:15:00,31.4,19.9,30.06,SSW,194,0.0,0.0,62,0.00,,SKC,0.00,VWS V14.01,2013-03-05 12:15:00,
2013-03-05 07:20:00,31.4,20.3,30.06,SSW,194,0.0,0.0,63,0.00,,SKC,0.00,VWS V14.01,2013-03-05 12:20:00,
2013-03-05 07:25:00,31.2,19.7,30.06,SSW,194,0.0,1.0,62,0.00,,SKC,0.00,VWS V14.01,2013-03-05 12:25:00,
2013-03-05 07:30:00,31.3,21.3,30.05,SE,138,1.0,1.0,66,0.00,,SKC,0.00,VWS V14.01,2013-03-05 12:30:00,
2013-03-05 07:35:00,31.5,20.7,30.05,SSE,153,0.0,0.0,64,0.00,,SKC,0.00,VWS V14.01,2013-03-05 12:35:00,
2013-03-05 07:40:00,31.8,21.0,30.06,SSE,155,0.0,0.0,64,0.00,,SKC,0.00,VWS V14.01,2013-03-05 12:40:00,
2013-03-05 07:45:00,32.0,21.2,30.06,SSE,155,0.0,0.0,64,0.00,,SKC,0.00,VWS V14.01,2013-03-05 12:45:00,
2013-03-05 07:50:00,31.6,20.8,30.06,SSE,155,0.0,0.0,64,0.00,,SKC,0.00,VWS V14.01,2013-03-05 12:50:00,
2013-03-05 07:55:00,31.4,20.6,30.05,SSE,155,0.0,0.0,64,0.00,,SKC,0.00,VWS V14.01,2013-03-05 12:55:00,
2013-03-05 08:00:00,31.7,20.6,30.05,SSE,155,0.0,0.0,63,0.00,,SKC,0.00,VWS V14.01,2013-03-05 13:00:00,
2013-03-05 08:05:00,32.4,21.6,30.05,SSE,155,0.0,0.0,64,0.00,,SKC,0.00,VWS V14.01,2013-03-05 13:05:00,
2013-03-05 08:10:00,32.9,20.9,30.05,SSE,155,0.0,0.0,61,0.00,,SKC,0.00,VWS V14.01,2013-03-05 13:10:00,
2013-03-05 08:15:00,33.1,20.7,30.05,SSE,155,0.0,0.0,60,0.00,,SKC,0.00,VWS V14.01,2013-03-05 13:15:00,
2013-03-05 08:20:00,33.5,20.7,30.04,SSE,155,0.0,0.0,59,0.00,,SKC,0.00,VWS V14.01,2013-03-05 13:20:00,
2013-03-05 08:25:00,34.2,21.4,30.04,SW,227,0.0,0.0,59,0.00,,SKC,0.00,VWS V14.01,2013-03-05 13:25:00,
2013-03-05 08:30:00,34.4,21.2,30.04,SW,227,0.0,0.0,58,0.00,,SKC,0.00,VWS V14.01,2013-03-05 13:30:00,
2013-03-05 08:35:00,34.6,21.8,30.04,SW,227,0.0,0.0,59,0.00,,SKC,0.00,VWS V14.01,2013-03-05 13:35:00,
2013-03-05 08:40:00,34.5,21.7,30.04,NW,305,0.0,1.0,59,0.00,,SKC,0.00,VWS V14.01,2013-03-05 13:40:00,
2013-03-05 08:45:00,34.4,22.0,30.04,NW,304,0.0,0.0,60,0.00,,SKC,0.00,VWS V14.01,2013-03-05 13:45:00,
2013-03-05 08:50:00,34.1,22.1,30.04,NW,304,0.0,0.0,61,0.00,,SKC,0.00,VWS V14.01,2013-03-05 13:50:00,
2013-03-05 08:55:00,33.8,21.4,30.04,NW,304,0.0,0.0,60,0.00,,SKC,0.00,VWS V14.01,2013-03-05 13:55:00,
2013-03-05 09:00:00,33.5,20.7,30.04,NW,304,0.0,0.0,59,0.00,,SKC,0.00,VWS V14.01,2013-03-05 14:00:00,
2013-03-05 09:05:00,33.5,20.3,30.03,NW,304,0.0,0.0,58,0.00,,SKC,0.00,VWS V14.01,2013-03-05 14:05:00,
2013-03-05 09:10:00,33.9,20.3,30.03,NW,304,0.0,0.0,57,0.00,,SKC,0.00,VWS V14.01,2013-03-05 14:10:00,
2013-03-05 09:15:00,34.4,21.2,30.03,NW,304,0.0,0.0,58,0.00,,SKC,0.00,VWS V14.01,2013-03-05 14:15:00,
2013-03-05 09:20:00,34.4,20.3,30.03,NW,304,0.0,0.0,56,0.00,,SKC,0.00,VWS V14.01,2013-03-05 14:20:00,
2013-03-05 09:25:00,35.2,20.7,30.03,NW,304,0.0,0.0,55,0.00,,SKC,0.00,VWS V14.01,2013-03-05 14:25:00,
2013-03-05 09:30:00,35.3,19.9,30.03,NW,304,0.0,0.0,53,0.00,,SKC,0.00,VWS V14.01,2013-03-05 14:30:00,
2013-03-05 09:35:00,36.0,20.1,30.02,NW,304,0.0,0.0,52,0.00,,SKC,0.00,VWS V14.01,2013-03-05 14:35:00,
2013-03-05 09:40:00,36.0,20.1,30.02,NNW,333,0.0,0.0,52,0.00,,SKC,0.00,VWS V14.01,2013-03-05 14:40:00,
2013-03-05 09:45:00,36.5,20.1,30.02,NNW,336,0.0,0.0,51,0.00,,SKC,0.00,VWS V14.01,2013-03-05 14:45:00,
2013-03-05 09:50:00,37.8,21.8,30.01,NNW,336,0.0,1.0,52,0.00,,SKC,0.00,VWS V14.01,2013-03-05 14:50:00,
2013-03-05 09:55:00,38.6,21.6,30.01,NNW,336,0.0,0.0,50,0.00,,SKC,0.00,VWS V14.01,2013-03-05 14:55:00,
2013-03-05 10:00:00,39.0,20.5,30.00,NNW,336,0.0,0.0,47,0.00,,SKC,0.00,VWS V14.01,2013-03-05 15:00:00,
2013-03-05 10:05:00,39.3,20.3,30.00,NNW,336,0.0,0.0,46,0.00,,SKC,0.00,VWS V14.01,2013-03-05 15:05:00,
2013-03-05 10:10:00,39.2,19.7,30.00,NNW,336,0.0,0.0,45,0.00,,SKC,0.00,VWS V14.01,2013-03-05 15:10:00,
2013-03-05 10:15:00,39.6,20.5,30.00,NNW,336,1.0,1.0,46,0.00,,SKC,0.00,VWS V14.01,2013-03-05 15:15:00,
2013-03-05 10:20:00,40.2,19.5,30.00,West,269,0.0,1.0,43,0.00,,SKC,0.00,VWS V14.01,2013-03-05 15:20:00,
2013-03-05 10:25:00,40.3,20.1,30.00,NNW,332,0.0,0.0,44,0.00,,SKC,0.00,VWS V14.01,2013-03-05 15:25:00,
2013-03-05 10:29:00,41.7,20.3,30.00,NNW,332,0.0,1.0,42,0.00,,SKC,0.00,VWS V14.01,2013-03-05 15:29:00,
2013-03-05 10:34:00,42.2,21.3,30.00,WNW,295,0.0,4.0,43,0.00,,SKC,0.00,VWS V14.01,2013-03-05 15:34:00,
2013-03-05 10:39:00,42.2,21.9,30.00,WNW,299,1.0,1.0,44,0.00,,SKC,0.00,VWS V14.01,2013-03-05 15:39:00,
2013-03-05 10:44:00,41.9,21.0,30.00,WNW,296,0.0,2.0,43,0.00,,SKC,0.00,VWS V14.01,2013-03-05 15:44:00,
2013-03-05 10:49:00,41.2,19.9,30.00,WNW,299,0.0,0.0,42,0.00,,SKC,0.00,VWS V14.01,2013-03-05 15:49:00,
2013-03-05 10:54:00,40.6,19.9,30.00,NW,321,0.0,0.0,43,0.00,,SKC,0.00,VWS V14.01,2013-03-05 15:54:00,
2013-03-05 10:59:00,40.5,20.3,29.99,NW,321,0.0,0.0,44,0.00,,SKC,0.00,VWS V14.01,2013-03-05 15:59:00,
2013-03-05 11:04:00,40.7,21.0,29.99,ENE,65,0.0,0.0,45,0.00,,SKC,0.00,VWS V14.01,2013-03-05 16:04:00,
2013-03-05 11:09:00,41.2,21.0,29.99,ENE,65,0.0,0.0,44,0.00,,SKC,0.00,VWS V14.01,2013-03-05 16:09:00,
2013-03-05 11:14:00,40.7,21.0,29.98,SW,222,0.0,0.0,45,0.00,,SKC,0.00,VWS V14.01,2013-03-05 16:14:00,
2013-03-05 11:19:00,41.5,20.7,29.99,SW,217,0.0,0.0,43,0.00,,SKC,0.00,VWS V14.01,2013-03-05 16:19:00,
2013-03-05 11:24:00,41.8,19.3,29.98,SW,227,0.0,0.0,40,0.00,,SKC,0.00,VWS V14.01,2013-03-05 16:24:00,
2013-03-05 11:29:00,42.0,20.0,29.98,SSW,200,0.0,0.0,41,0.00,,SKC,0.00,VWS V14.01,2013-03-05 16:29:00,
2013-03-05 11:34:00,42.0,20.0,29.98,SSW,207,0.0,0.0,41,0.00,,SKC,0.00,VWS V14.01,2013-03-05 16:34:00,
2013-03-05 11:39:00,42.3,20.9,29.98,SSW,207,0.0,1.0,42,0.00,,SKC,0.00,VWS V14.01,2013-03-05 16:39:00,
2013-03-05 11:44:00,42.2,20.8,29.97,SSW,208,0.0,0.0,42,0.00,,SKC,0.00,VWS V14.01,2013-03-05 16:44:00,
2013-03-05 11:49:00,42.5,19.9,29.97,SSW,208,1.0,1.0,40,0.00,,SKC,0.00,VWS V14.01,2013-03-05 16:49:00,
2013-03-05 11:54:00,42.0,19.5,29.97,WNW,287,0.0,1.0,40,0.00,,SKC,0.00,VWS V14.01,2013-03-05 16:54:00,
2013-03-05 11:59:00,41.6,19.1,29.97,North,10,0.0,0.0,40,0.00,,SKC,0.00,VWS V14.01,2013-03-05 16:59:00,
2013-03-05 12:04:00,42.0,19.5,29.96,North,10,1.0,2.0,40,0.00,,SKC,0.00,VWS V14.01,2013-03-05 17:04:00,
2013-03-05 12:09:00,42.1,19.0,29.96,NE,51,0.0,0.0,39,0.00,,SKC,0.00,VWS V14.01,2013-03-05 17:09:00,
2013-03-05 12:14:00,42.7,20.1,29.95,NE,51,0.0,0.0,40,0.00,,SKC,0.00,VWS V14.01,2013-03-05 17:14:00,
2013-03-05 12:19:00,43.1,19.8,29.95,North,360,0.0,2.0,39,0.00,,SKC,0.00,VWS V14.01,2013-03-05 17:19:00,
2013-03-05 12:24:00,43.2,18.7,29.95,North,360,0.0,2.0,37,0.00,,SKC,0.00,VWS V14.01,2013-03-05 17:24:00,
2013-03-05 12:29:00,43.1,19.2,29.94,North,360,0.0,1.0,38,0.00,,SKC,0.00,VWS V14.01,2013-03-05 17:29:00,
2013-03-05 12:34:00,43.2,19.3,29.94,North,9,0.0,2.0,38,0.00,,SKC,0.00,VWS V14.01,2013-03-05 17:34:00,
2013-03-05 12:39:00,43.8,19.9,29.94,WNW,286,2.0,2.0,38,0.00,,SKC,0.00,VWS V14.01,2013-03-05 17:39:00,
2013-03-05 12:44:00,44.2,20.2,29.94,NNW,348,1.0,2.0,38,0.00,,SKC,0.00,VWS V14.01,2013-03-05 17:44:00,
2013-03-05 12:49:00,44.0,20.0,29.94,North,360,0.0,0.0,38,0.00,,SKC,0.00,VWS V14.01,2013-03-05 17:49:00,
2013-03-05 12:54:00,44.6,20.6,29.93,NE,36,1.0,3.0,38,0.00,,SKC,0.00,VWS V14.01,2013-03-05 17:54:00,
2013-03-05 12:59:00,44.5,21.1,29.93,NNE,24,0.0,0.0,39,0.00,,SKC,0.00,VWS V14.01,2013-03-05 17:59:00,
2013-03-05 13:04:00,45.7,22.2,29.92,NNE,23,0.0,1.0,39,0.00,,SKC,0.00,VWS V14.01,2013-03-05 18:04:00,
2013-03-05 13:09:00,45.5,21.4,29.92,WSW,250,0.0,1.0,38,0.00,,SKC,0.00,VWS V14.01,2013-03-05 18:09:00,
2013-03-05 13:14:00,45.9,22.4,29.92,NW,306,0.0,1.0,39,0.00,,SKC,0.00,VWS V14.01,2013-03-05 18:14:00,
2013-03-05 13:19:00,45.4,20.7,29.91,North,11,1.0,5.0,37,0.00,,SKC,0.00,VWS V14.01,2013-03-05 18:19:00,
2013-03-05 13:24:00,45.5,21.4,29.91,NNE,32,2.0,7.0,38,0.00,,SKC,0.00,VWS V14.01,2013-03-05 18:24:00,
2013-03-05 13:29:00,45.6,21.5,29.90,NNE,27,0.0,4.0,38,0.00,,SKC,0.00,VWS V14.01,2013-03-05 18:29:00,
2013-03-05 13:34:00,46.7,22.5,29.90,NE,39,5.0,7.0,38,0.00,,SKC,0.00,VWS V14.01,2013-03-05 18:34:00,
2013-03-05 13:39:00,46.6,21.7,29.89,NNE,17,0.0,1.0,37,0.00,,SKC,0.00,VWS V14.01,2013-03-05 18:39:00,
2013-03-05 13:44:00,46.1,21.3,29.89,North,5,1.0,1.0,37,0.00,,SKC,0.00,VWS V14.01,2013-03-05 18:44:00,
2013-03-05 13:49:00,46.0,22.5,29.89,North,355,0.0,6.0,39,0.00,,SKC,0.00,VWS V14.01,2013-03-05 18:49:00,
2013-03-05 13:54:00,45.7,22.2,29.88,NE,52,4.0,6.0,39,0.00,,SKC,0.00,VWS V14.01,2013-03-05 18:54:00,
2013-03-05 13:59:00,45.6,23.3,29.88,North,355,0.0,0.0,41,0.00,,SKC,0.00,VWS V14.01,2013-03-05 18:59:00,
2013-03-05 14:04:00,45.8,22.3,29.88,North,9,0.0,1.0,39,0.00,,SKC,0.00,VWS V14.01,2013-03-05 19:04:00,
2013-03-05 14:09:00,45.7,22.8,29.87,North,5,0.0,0.0,40,0.00,,SKC,0.00,VWS V14.01,2013-03-05 19:09:00,
2013-03-05 14:14:00,45.8,22.9,29.86,NNE,28,2.0,5.0,40,0.00,,SKC,0.00,VWS V14.01,2013-03-05 19:14:00,
2013-03-05 14:19:00,45.8,22.9,29.86,NE,38,1.0,2.0,40,0.00,,SKC,0.00,VWS V14.01,2013-03-05 19:19:00,
2013-03-05 14:24:00,45.8,22.9,29.86,North,11,5.0,5.0,40,0.00,,SKC,0.00,VWS V14.01,2013-03-05 19:24:00,
2013-03-05 14:29:00,45.6,22.7,29.85,NNE,16,1.0,5.0,40,0.00,,SKC,0.00,VWS V14.01,2013-03-05 19:29:00,
2013-03-05 14:34:00,46.0,23.0,29.85,North,11,0.0,1.0,40,0.00,,SKC,0.00,VWS V14.01,2013-03-05 19:34:00,
2013-03-05 14:39:00,46.0,23.0,29.85,NNE,22,2.0,6.0,40,0.00,,SKC,0.00,VWS V14.01,2013-03-05 19:39:00,
2013-03-05 14:44:00,46.1,23.1,29.84,NNE,14,2.0,2.0,40,0.00,,SKC,0.00,VWS V14.01,2013-03-05 19:44:00,
2013-03-05 14:49:00,46.8,23.2,29.84,NNE,13,0.0,5.0,39,0.00,,SKC,0.00,VWS V14.01,2013-03-05 19:49:00,
2013-03-05 14:54:00,47.0,23.3,29.83,North,5,1.0,6.0,39,0.00,,SKC,0.00,VWS V14.01,2013-03-05 19:54:00,
2013-03-05 14:59:00,47.2,22.3,29.83,NNE,28,1.0,2.0,37,0.00,,SKC,0.00,VWS V14.01,2013-03-05 19:59:00,
2013-03-05 15:04:00,47.1,23.4,29.83,SE,130,0.0,1.0,39,0.00,,SKC,0.00,VWS V14.01,2013-03-05 20:04:00,
2013-03-05 15:09:00,47.1,23.4,29.83,WNW,293,2.0,2.0,39,0.00,,SKC,0.00,VWS V14.01,2013-03-05 20:09:00,
2013-03-05 15:14:00,47.2,22.9,29.83,NNE,19,1.0,3.0,38,0.00,,SKC,0.00,VWS V14.01,2013-03-05 20:14:00,
2013-03-05 15:19:00,47.3,23.0,29.83,NNE,23,0.0,0.0,38,0.00,,SKC,0.00,VWS V14.01,2013-03-05 20:19:00,
2013-03-05 15:24:00,47.5,23.2,29.83,West,259,2.0,2.0,38,0.00,,SKC,0.00,VWS V14.01,2013-03-05 20:24:00,
2013-03-05 15:29:00,47.6,22.6,29.83,NE,47,1.0,1.0,37,0.00,,SKC,0.00,VWS V14.01,2013-03-05 20:29:00,
2013-03-05 15:34:00,47.8,23.4,29.83,North,355,1.0,2.0,38,0.00,,SKC,0.00,VWS V14.01,2013-03-05 20:34:00,
2013-03-05 15:39:00,48.3,23.3,29.83,NE,54,0.0,2.0,37,0.00,,SKC,0.00,VWS V14.01,2013-03-05 20:39:00,
2013-03-05 15:44:00,48.2,23.2,29.82,NE,49,4.0,4.0,37,0.00,,SKC,0.00,VWS V14.01,2013-03-05 20:44:00,
2013-03-05 15:49:00,48.0,23.0,29.82,NE,38,0.0,0.0,37,0.00,,SKC,0.00,VWS V14.01,2013-03-05 20:49:00,
2013-03-05 15:54:00,47.6,23.9,29.82,North,5,0.0,1.0,39,0.00,,SKC,0.00,VWS V14.01,2013-03-05 20:54:00,
2013-03-05 15:59:00,47.7,24.6,29.82,SE,128,0.0,0.0,40,0.00,,SKC,0.00,VWS V14.01,2013-03-05 20:59:00,
2013-03-05 16:04:00,47.8,25.8,29.82,ESE,116,0.0,0.0,42,0.00,,SKC,0.00,VWS V14.01,2013-03-05 21:04:00,
2013-03-05 16:09:00,47.9,25.9,29.82,East,84,4.0,4.0,42,0.00,,SKC,0.00,VWS V14.01,2013-03-05 21:09:00,
2013-03-05 16:14:00,47.8,24.1,29.82,SSW,194,4.0,6.0,39,0.00,,SKC,0.00,VWS V14.01,2013-03-05 21:14:00,
2013-03-05 16:19:00,47.2,24.1,29.82,North,355,6.0,9.0,40,0.00,,SKC,0.00,VWS V14.01,2013-03-05 21:19:00,
2013-03-05 16:24:00,46.7,23.7,29.82,East,89,4.0,10.0,40,0.00,,SKC,0.00,VWS V14.01,2013-03-05 21:24:00,
2013-03-05 16:29:00,46.3,23.9,29.82,NE,50,2.0,5.0,41,0.00,,SKC,0.00,VWS V14.01,2013-03-05 21:29:00,
2013-03-05 16:34:00,45.9,24.1,29.82,NE,35,2.0,5.0,42,0.00,,SKC,0.00,VWS V14.01,2013-03-05 21:34:00,
2013-03-05 16:39:00,45.8,24.0,29.82,NE,47,6.0,6.0,42,0.00,,SKC,0.00,VWS V14.01,2013-03-05 21:39:00,
2013-03-05 16:44:00,45.8,24.0,29.81,ENE,67,3.0,3.0,42,0.00,,SKC,0.00,VWS V14.01,2013-03-05 21:44:00,
2013-03-05 16:49:00,45.9,23.5,29.81,ESE,121,5.0,8.0,41,0.00,,SKC,0.00,VWS V14.01,2013-03-05 21:49:00,
2013-03-05 16:54:00,45.8,24.0,29.81,NNE,25,4.0,5.0,42,0.00,,SKC,0.00,VWS V14.01,2013-03-05 21:54:00,
2013-03-05 16:59:00,45.6,24.4,29.81,East,101,1.0,8.0,43,0.00,,SKC,0.00,VWS V14.01,2013-03-05 21:59:00,
2013-03-05 17:04:00,45.4,24.2,29.81,East,96,6.0,10.0,43,0.00,,SKC,0.00,VWS V14.01,2013-03-05 22:04:00,
2013-03-05 17:09:00,45.1,24.5,29.81,SE,126,5.0,5.0,44,0.00,,SKC,0.00,VWS V14.01,2013-03-05 22:09:00,
2013-03-05 17:14:00,45.0,23.9,29.81,NE,53,0.0,5.0,43,0.00,,SKC,0.00,VWS V14.01,2013-03-05 22:14:00,
2013-03-05 17:19:00,44.9,23.8,29.81,East,88,0.0,7.0,43,0.00,,SKC,0.00,VWS V14.01,2013-03-05 22:19:00,
2013-03-05 17:24:00,44.6,23.5,29.80,ENE,72,9.0,9.0,43,0.00,,SKC,0.00,VWS V14.01,2013-03-05 22:24:00,
2013-03-05 17:29:00,44.2,23.1,29.81,ESE,110,4.0,5.0,43,0.00,,SKC,0.00,VWS V14.01,2013-03-05 22:29:00,
2013-03-05 17:34:00,43.9,23.4,29.81,NNE,32,11.0,15.0,44,0.00,,SKC,0.00,VWS V14.01,2013-03-05 22:34:00,
2013-03-05 17:39:00,43.6,23.1,29.81,NE,38,8.0,9.0,44,0.00,,SKC,0.00,VWS V14.01,2013-03-05 22:39:00,
2013-03-05 17:44:00,43.3,22.9,29.80,ESE,117,5.0,9.0,44,0.00,,SKC,0.00,VWS V14.01,2013-03-05 22:44:00,
2013-03-05 17:49:00,43.1,23.2,29.80,ENE,77,9.0,12.0,45,0.00,,SKC,0.00,VWS V14.01,2013-03-05 22:49:00,
2013-03-05 17:54:00,42.9,23.0,29.80,ENE,66,5.0,10.0,45,0.00,,SKC,0.00,VWS V14.01,2013-03-05 22:54:00,
2013-03-05 17:59:00,42.7,22.9,29.80,East,86,8.0,8.0,45,0.00,,SKC,0.00,VWS V14.01,2013-03-05 22:59:00,
2013-03-05 18:04:00,42.6,22.8,29.79,East,96,5.0,8.0,45,0.00,,SKC,0.00,VWS V14.01,2013-03-05 23:04:00,
2013-03-05 18:09:00,42.5,22.7,29.79,SE,124,5.0,7.0,45,0.00,,SKC,0.00,VWS V14.01,2013-03-05 23:09:00,
2013-03-05 18:14:00,42.4,22.6,29.79,East,101,10.0,14.0,45,0.00,,SKC,0.00,VWS V14.01,2013-03-05 23:14:00,
2013-03-05 18:19:00,42.3,23.0,29.79,ENE,73,6.0,11.0,46,0.00,,SKC,0.00,VWS V14.01,2013-03-05 23:19:00,
2013-03-05 18:24:00,42.1,22.8,29.79,ENE,78,11.0,19.0,46,0.00,,SKC,0.00,VWS V14.01,2013-03-05 23:24:00,
2013-03-05 18:29:00,42.0,22.7,29.79,SE,134,11.0,18.0,46,0.00,,SKC,0.00,VWS V14.01,2013-03-05 23:29:00,
2013-03-05 18:34:00,41.8,22.0,29.78,NE,55,4.0,8.0,45,0.00,,SKC,0.00,VWS V14.01,2013-03-05 23:34:00,
2013-03-05 18:39:00,41.6,22.4,29.79,SSE,161,12.0,14.0,46,0.00,,SKC,0.00,VWS V14.01,2013-03-05 23:39:00,
2013-03-05 18:44:00,41.5,22.3,29.79,SE,136,3.0,11.0,46,0.00,,SKC,0.00,VWS V14.01,2013-03-05 23:44:00,
2013-03-05 18:49:00,41.4,21.7,29.79,ENE,58,12.0,18.0,45,0.00,,SKC,0.00,VWS V14.01,2013-03-05 23:49:00,
2013-03-05 18:54:00,41.4,22.2,29.79,East,83,10.0,10.0,46,0.00,,SKC,0.00,VWS V14.01,2013-03-05 23:54:00,
2013-03-05 18:59:00,41.3,21.6,29.79,East,96,8.0,13.0,45,0.00,,SKC,0.00,VWS V14.01,2013-03-05 23:59:00,
2013-03-05 19:04:00,41.3,22.1,29.79,ENE,74,4.0,14.0,46,0.00,,SKC,0.00,VWS V14.01,2013-03-06 00:04:00,
2013-03-05 19:09:00,41.2,22.0,29.78,East,81,6.0,8.0,46,0.00,,SKC,0.00,VWS V14.01,2013-03-06 00:09:00,
2013-03-05 19:14:00,41.1,21.9,29.78,ENE,70,16.0,16.0,46,0.00,,SKC,0.00,VWS V14.01,2013-03-06 00:14:00,
2013-03-05 19:19:00,41.1,21.9,29.77,ENE,65,14.0,14.0,46,0.00,,SKC,0.00,VWS V14.01,2013-03-06 00:19:00,
2013-03-05 19:24:00,41.1,21.9,29.77,ESE,113,11.0,14.0,46,0.00,,SKC,0.00,VWS V14.01,2013-03-06 00:24:00,
2013-03-05 19:29:00,41.1,22.4,29.77,ENE,76,5.0,16.0,47,0.00,,SKC,0.00,VWS V14.01,2013-03-06 00:29:00,
2013-03-05 19:34:00,41.0,22.3,29.76,NE,48,10.0,13.0,47,0.00,,SKC,0.00,VWS V14.01,2013-03-06 00:34:00,
2013-03-05 19:39:00,40.9,22.2,29.76,ENE,74,5.0,12.0,47,0.00,,SKC,0.00,VWS V14.01,2013-03-06 00:39:00,
2013-03-05 19:44:00,40.8,22.1,29.76,East,98,9.0,13.0,47,0.00,,SKC,0.00,VWS V14.01,2013-03-06 00:44:00,
2013-03-05 19:49:00,40.8,22.1,29.76,ENE,69,6.0,9.0,47,0.00,,SKC,0.00,VWS V14.01,2013-03-06 00:49:00,
2013-03-05 19:54:00,40.7,22.5,29.76,SSE,148,13.0,13.0,48,0.00,,SKC,0.00,VWS V14.01,2013-03-06 00:54:00,
2013-03-05 19:59:00,40.7,22.5,29.76,ENE,58,9.0,11.0,48,0.00,,SKC,0.00,VWS V14.01,2013-03-06 00:59:00,
2013-03-05 20:04:00,40.6,23.0,29.76,SE,132,10.0,10.0,49,0.00,,SKC,0.00,VWS V14.01,2013-03-06 01:04:00,
2013-03-05 20:09:00,40.4,23.2,29.75,ESE,110,5.0,10.0,50,0.00,,SKC,0.00,VWS V14.01,2013-03-06 01:09:00,
2013-03-05 20:14:00,40.3,24.1,29.75,ESE,108,9.0,9.0,52,0.00,,SKC,0.00,VWS V14.01,2013-03-06 01:14:00,
2013-03-05 20:19:00,40.0,24.3,29.74,NE,49,2.0,4.0,53,0.00,,SKC,0.00,VWS V14.01,2013-03-06 01:19:00,
2013-03-05 20:24:00,39.9,24.2,29.74,North,5,2.0,5.0,53,0.00,,SKC,0.00,VWS V14.01,2013-03-06 01:24:00,
2013-03-05 20:29:00,39.7,24.0,29.73,SE,132,9.0,11.0,53,0.00,,SKC,0.00,VWS V14.01,2013-03-06 01:29:00,
2013-03-05 20:34:00,39.5,24.2,29.74,ENE,62,2.0,4.0,54,0.00,,SKC,0.00,VWS V14.01,2013-03-06 01:34:00,
2013-03-05 20:39:00,39.4,24.1,29.74,NNW,346,0.0,2.0,54,0.00,,SKC,0.00,VWS V14.01,2013-03-06 01:39:00,
2013-03-05 20:44:00,39.3,24.5,29.75,NE,36,5.0,9.0,55,0.00,,SKC,0.00,VWS V14.01,2013-03-06 01:44:00,
2013-03-05 20:49:00,39.1,24.7,29.75,SSE,158,0.0,1.0,56,0.00,,SKC,0.00,VWS V14.01,2013-03-06 01:49:00,
2013-03-05 20:54:00,38.9,25.0,29.75,WSW,248,2.0,2.0,57,0.00,,SKC,0.00,VWS V14.01,2013-03-06 01:54:00,
2013-03-05 20:59:00,38.6,25.1,29.75,SW,220,1.0,3.0,58,0.00,,SKC,0.00,VWS V14.01,2013-03-06 01:59:00,
2013-03-05 21:04:00,38.3,25.6,29.75,NW,320,0.0,4.0,60,0.00,,SKC,0.00,VWS V14.01,2013-03-06 02:04:00,
2013-03-05 21:09:00,38.1,25.5,29.75,WSW,244,0.0,0.0,60,0.00,,SKC,0.00,VWS V14.01,2013-03-06 02:09:00,
2013-03-05 21:14:00,38.0,26.1,29.75,South,189,4.0,14.0,62,0.00,,SKC,0.00,VWS V14.01,2013-03-06 02:14:00,
2013-03-05 21:18:00,37.2,26.9,29.76,ENE,61,0.0,3.0,66,0.00,,SKC,0.00,VWS V14.01,2013-03-06 02:18:00,
2013-03-05 21:19:00,37.7,26.6,29.75,SW,216,0.0,0.0,64,0.00,,SKC,0.00,VWS V14.01,2013-03-06 02:19:00,
2013-03-05 21:24:00,37.3,26.6,29.76,WNW,291,0.0,2.0,65,0.00,,SKC,0.00,VWS V14.01,2013-03-06 02:24:00,
2013-03-05 21:29:00,36.9,27.3,29.76,SW,221,1.0,4.0,68,0.00,,SKC,0.00,VWS V14.01,2013-03-06 02:29:00,
2013-03-05 21:34:00,36.3,28.1,29.76,West,276,5.0,5.0,72,0.00,,SKC,0.00,VWS V14.01,2013-03-06 02:34:00,
2013-03-05 21:39:00,35.6,28.5,29.76,North,5,2.0,2.0,75,0.00,,SKC,0.00,VWS V14.01,2013-03-06 02:39:00,
2013-03-05 21:44:00,34.8,28.6,29.76,NE,34,2.0,7.0,78,0.00,,SKC,0.00,VWS V14.01,2013-03-06 02:44:00,
2013-03-05 21:49:00,34.4,28.9,29.75,NE,34,0.0,0.0,80,0.00,,SKC,0.00,VWS V14.01,2013-03-06 02:49:00,
2013-03-05 21:54:00,33.7,28.8,29.75,South,182,0.0,2.0,82,0.00,,SKC,0.00,VWS V14.01,2013-03-06 02:54:00,
2013-03-05 21:59:00,33.4,28.8,29.75,WNW,292,0.0,0.0,83,0.00,,SKC,0.00,VWS V14.01,2013-03-06 02:59:00,
2013-03-05 22:04:00,33.0,29.0,29.75,WNW,292,0.0,1.0,85,0.00,,SKC,0.00,VWS V14.01,2013-03-06 03:04:00,
2013-03-05 22:09:00,32.7,29.0,29.74,North,5,0.0,0.0,86,0.00,,SKC,0.00,VWS V14.01,2013-03-06 03:09:00,
2013-03-05 22:14:00,32.5,29.1,29.74,North,5,0.0,0.0,87,0.00,,SKC,0.00,VWS V14.01,2013-03-06 03:14:00,
2013-03-05 22:19:00,32.3,29.1,29.74,NW,325,0.0,1.0,88,0.00,,SKC,0.00,VWS V14.01,2013-03-06 03:19:00,
2013-03-05 22:24:00,32.1,29.0,29.74,NNE,23,3.0,4.0,88,0.00,,SKC,0.00,VWS V14.01,2013-03-06 03:24:00,
2013-03-05 22:29:00,32.0,30.7,29.74,NNW,344,0.0,0.0,95,0.00,,SKC,0.00,VWS V14.01,2013-03-06 03:29:00,
2013-03-05 22:34:00,31.9,29.0,29.74,WSW,252,0.0,2.0,89,0.00,,SKC,0.00,VWS V14.01,2013-03-06 03:34:00,
2013-03-05 22:39:00,31.7,29.1,29.73,West,263,0.0,0.0,90,0.00,,SKC,0.00,VWS V14.01,2013-03-06 03:39:00,
2013-03-05 22:44:00,31.7,29.1,29.73,West,263,0.0,0.0,90,0.00,,SKC,0.00,VWS V14.01,2013-03-06 03:44:00,
2013-03-05 22:49:00,31.6,29.0,29.73,NW,317,0.0,0.0,90,0.00,,SKC,0.00,VWS V14.01,2013-03-06 03:49:00,
2013-03-05 22:54:00,31.6,29.0,29.72,NNW,346,0.0,0.0,90,0.00,,SKC,0.00,VWS V14.01,2013-03-06 03:54:00,
2013-03-05 22:59:00,31.5,29.2,29.73,NNW,346,0.0,0.0,91,0.00,,SKC,0.00,VWS V14.01,2013-03-06 03:59:00,
2013-03-05 23:04:00,31.4,29.1,29.72,North,355,1.0,11.0,91,0.00,,SKC,0.00,VWS V14.01,2013-03-06 04:04:00,
2013-03-05 23:09:00,31.4,29.1,29.72,NNE,20,6.0,6.0,91,0.00,,SKC,0.00,VWS V14.01,2013-03-06 04:09:00,
2013-03-05 23:14:00,31.3,29.0,29.72,SSE,161,0.0,0.0,91,0.00,,SKC,0.00,VWS V14.01,2013-03-06 04:14:00,
2013-03-05 23:19:00,31.2,28.9,29.71,NNW,343,1.0,2.0,91,0.00,,SKC,0.00,VWS V14.01,2013-03-06 04:19:00,
2013-03-05 23:24:00,31.2,28.9,29.71,ESE,111,1.0,1.0,91,0.00,,SKC,0.00,VWS V14.01,2013-03-06 04:24:00,
2013-03-05 23:29:00,31.1,28.8,29.71,NNW,342,1.0,2.0,91,0.00,,SKC,0.00,VWS V14.01,2013-03-06 04:29:00,
2013-03-05 23:34:00,31.0,28.7,29.71,NNW,345,0.0,2.0,91,0.00,,SKC,0.00,VWS V14.01,2013-03-06 04:34:00,
2013-03-05 23:39:00,31.0,28.7,29.71,North,5,2.0,2.0,91,0.00,,SKC,0.00,VWS V14.01,2013-03-06 04:39:00,
2013-03-05 23:44:00,30.9,28.6,29.70,NNE,15,0.0,1.0,91,0.00,,SKC,0.00,VWS V14.01,2013-03-06 04:44:00,
2013-03-05 23:49:00,30.8,28.5,29.70,NNW,342,0.0,0.0,91,0.00,,SKC,0.00,VWS V14.01,2013-03-06 04:49:00,
2013-03-05 23:54:00,30.7,28.7,29.70,NNE,15,0.0,1.0,92,0.00,,SKC,0.00,VWS V14.01,2013-03-06 04:54:00,
2013-03-05 23:59:00,30.6,28.6,29.70,NNE,15,5.0,5.0,92,0.00,,SKC,0.00,VWS V14.01,2013-03-06 04:59:00,